Lid_Strength_Index
16 16 16 16 17 16 17 17 20 19 19 16 14 13 12 10 10 11 11 11 11 11 11 10 9 10 11 10 9 9 10 11 12 12 12 13 13 14 14 14 14 14 14 15
18 15 15 17 16 16 16 15 16 16 17 13 12 11 12 11 11 12 12 11 12 12 12 12 11 12 12 12 12 10 12 12 12 13 13 13 13 14 14 15 15 14 15 15
20 15 16 21 17 16 15 15 15 19 15 12 13 13 12 12 12 11 11 11 11 11 12 12 12 11 12 12 12 12 12 12 13 13 13 14 14 14 15 15 14 15 15 15
17 17 23 16 12 13 14 14 13 13 13 12 11 11 11 11 11 11 12 12 11 11 12 12 12 13 12 13 13 13 13 13 13 13 13 14 14 15 15 14 15 15 15 15
17 17 14 14 12 12 12 14 11 13 12 12 11 12 12 9 9 11 11 11 11 10 10 11 12 12 13 13 13 13 13 13 13 13 14 14 15 15 14 15 15 15 15 15
14 18 20 12 9 7 7 14 8 10 11 12 12 16 13 10 10 10 10 10 11 10 10 11 12 13 13 13 13 13 13 13 13 13 13 14 14 14 14 14 14 15 15 15
15 16 14 9 8 7 15 13 7 7 8 10 13 12 11 10 10 10 10 10 10 10 10 11 12 13 13 13 13 12 12 12 13 13 13 13 14 14 14 15 15 15 15 15
15 17 18 7 8 11 8 6 6 6 6 7 9 9 10 11 11 10 11 10 10 11 10 11 12 14 13 13 12 12 12 12 13 13 13 13 14 14 15 15 16 16 16 15
12 12 7 6 7 5 5 6 6 6 5 6 7 8 9 10 10 10 10 10 10 11 12 11 12 12 13 12 12 13 13 13 13 13 13 13 14 15 16 16 16 16 16 15
10 9 8 6 5 5 5 5 5 4 4 5 6 6 8 10 10 10 10 10 11 11 12 13 13 13 14 13 14 13 13 13 14 14 14 14 14 14 15 15 15 15 16 15
10 8 7 6 6 5 5 4 4 4 4 4 5 5 6 9 10 10 10 11 11 12 13 13 14 15 15 14 15 14 13 14 15 14 14 14 14 14 14 14 14 14 14 14
12 7 7 7 5 4 5 5 5 5 5 5 5 5 5 8 9 9 11 12 13 14 15 14 15 16 17 17 15 14 14 15 15 15 15 15 14 14 13 12 12 12 12 13
7 5 5 5 4 4 5 5 5 5 4 5 5 5 5 8 8 11 13 14 14 16 16 17 17 18 19 18 16 14 13 14 15 15 15 15 15 15 15 14 13 13 13 12
5 5 7 6 6 4 5 4 4 5 5 5 6 6 7 9 11 14 15 15 16 17 18 19 19 19 19 19 17 17 15 14 14 15 15 15 15 15 14 15 16 15 13 13
9 10 9 8 6 6 5 6 8 8 7 7 6 8 9 11 14 16 17 18 17 18 20 21 20 20 20 20 18 17 16 15 14 14 14 15 15 15 15 14 14 14 15 15
16 15 14 14 12 12 12 12 12 10 9 10 11 11 10 13 15 18 19 20 20 20 22 22 22 21 22 20 18 16 17 17 16 15 16 16 16 16 16 16 15 15 15 15
19 17 17 17 17 18 18 17 16 14 13 14 14 12 13 15 18 19 21 21 22 23 23 23 24 22 22 20 18 15 15 16 15 15 16 16 16 16 15 15 16 16 16 16
18 18 18 18 19 20 19 18 17 16 16 15 14 15 17 18 19 21 23 22 22 23 25 24 23 22 22 20 18 17 17 18 18 19 19 19 19 19 19 19 19 19 20 19
18 20 19 19 20 20 20 19 18 17 17 16 17 20 22 23 24 24 24 24 25 24 25 25 22 23 23 20 19 19 20 20 21 21 21 22 22 22 22 22 22 22 22 22
17 19 20 21 20 19 19 19 19 18 19 19 21 23 25 25 25 25 26 28 27 27 25 25 23 23 23 22 21 21 21 22 22 23 23 23 23 23 23 23 23 23 23 23
19 20 22 22 20 20 21 21 20 22 22 22 23 26 27 27 27 26 24 27 27 25 24 24 24 23 23 22 22 22 23 23 23 23 23 24 24 24 24 24 24 24 24 24
20 21 21 21 21 22 22 22 22 23 24 25 25 26 26 27 27 28 28 26 25 24 24 25 25 24 24 23 23 24 24 24 25 24 25 24 25 25 25 25 25 25 24 24
21 21 20 22 23 23 24 24 25 26 27 27 28 28 29 28 28 26 28 27 24 25 25 25 25 25 25 24 24 25 25 26 26 26 26 26 26 27 27 27 27 27 27 26
23 22 22 22 23 24 26 26 27 27 28 28 29 28 27 27 28 26 26 27 27 26 26 26 25 24 26 26 27 27 27 27 27 27 27 27 27 27 27 27 28 27 28 29
23 23 23 23 24 25 26 26 27 27 28 28 28 28 28 27 28 28 27 28 26 27 27 26 25 26 27 27 27 27 28 29 28 27 27 27 28 28 27 28 29 29 29 29
24 24 24 24 24 25 25 26 27 27 27 28 28 27 27 27 27 27 27 27 27 27 28 28 28 27 27 27 27 27 27 27 27 28 28 28 28 28 29 29 29 29 30 30
24 24 25 26 26 26 26 26 27 28 27 28 29 28 28 27 27 27 27 27 27 28 28 28 27 28 27 27 27 27 28 29 31 29 29 29 29 29 30 30 30 30 30 30